TimeEDT,TemperatureF,Dew PointF,Humidity,Sea Level PressureIn,VisibilityMPH,Wind Direction,Wind SpeedMPH,Gust SpeedMPH,PrecipitationIn,Events,Conditions,WindDirDegrees,DateUTC
12:53 AM,37.0,34.0,89,30.30,10.0,Calm,Calm,-,N/A,,Clear,0,2013-05-25 04:53:00
1:53 AM,36.0,33.1,89,30.30,7.0,Calm,Calm,-,N/A,,Clear,0,2013-05-25 05:53:00
2:53 AM,35.1,33.1,92,30.30,6.0,Calm,Calm,-,N/A,,Partly Cloudy,0,2013-05-25 06:53:00
3:53 AM,34.0,32.0,92,30.30,4.0,Calm,Calm,-,N/A,,Clear,0,2013-05-25 07:53:00
3:59 AM,33.8,32.0,93,30.30,1.8,Calm,Calm,-,N/A,,Partly Cloudy,0,2013-05-25 07:59:00
4:03 AM,33.8,32.0,93,30.30,0.8,Calm,Calm,-,N/A,,Mist,0,2013-05-25 08:03:00
4:12 AM,33.8,30.2,87,30.29,1.2,Calm,Calm,-,N/A,,Partly Cloudy,0,2013-05-25 08:12:00
4:34 AM,32.0,30.2,93,30.30,0.8,Calm,Calm,-,N/A,,Mist,0,2013-05-25 08:34:00
4:53 AM,32.0,30.0,92,30.31,0.2,Calm,Calm,-,N/A,Fog,Fog,0,2013-05-25 08:53:00
5:53 AM,32.0,30.9,96,30.32,0.2,Calm,Calm,-,N/A,Fog,Fog,0,2013-05-25 09:53:00
6:07 AM,32.0,30.2,93,30.32,0.2,Calm,Calm,-,N/A,Fog,Fog,0,2013-05-25 10:07:00
6:53 AM,32.0,30.9,96,30.35,0.2,Calm,Calm,-,N/A,Fog,Fog,0,2013-05-25 10:53:00
7:53 AM,35.1,35.1,100,30.34,1.8,Calm,Calm,-,N/A,,Mostly Cloudy,0,2013-05-25 11:53:00
7:55 AM,35.6,35.6,100,30.33,3.0,Calm,Calm,-,N/A,,Mostly Cloudy,0,2013-05-25 11:55:00
8:07 AM,37.4,35.6,93,30.33,8.0,Calm,Calm,-,N/A,,Partly Cloudy,0,2013-05-25 12:07:00
8:53 AM,42.1,35.1,76,30.32,10.0,Calm,Calm,-,N/A,,Clear,0,2013-05-25 12:53:00
9:39 AM,44.6,33.8,66,30.33,10.0,West,3.5,-,N/A,,Mostly Cloudy,270,2013-05-25 13:39:00
9:53 AM,44.1,33.1,65,30.33,10.0,WNW,5.8,-,N/A,,Mostly Cloudy,290,2013-05-25 13:53:00
10:53 AM,46.9,34.0,61,30.35,10.0,West,8.1,-,N/A,,Scattered Clouds,280,2013-05-25 14:53:00
11:53 AM,51.1,35.1,54,30.34,10.0,West,6.9,-,N/A,,Scattered Clouds,280,2013-05-25 15:53:00
12:53 PM,53.1,34.0,48,30.31,10.0,West,3.5,-,N/A,,Scattered Clouds,280,2013-05-25 16:53:00
1:53 PM,57.0,35.1,44,30.29,10.0,WNW,8.1,18.4,N/A,,Partly Cloudy,300,2013-05-25 17:53:00
2:53 PM,59.0,35.1,41,30.27,10.0,Variable,6.9,-,N/A,,Mostly Cloudy,0,2013-05-25 18:53:00
3:53 PM,60.1,35.1,39,30.26,10.0,WNW,9.2,19.6,N/A,,Scattered Clouds,290,2013-05-25 19:53:00
4:53 PM,62.1,36.0,38,30.24,10.0,NW,9.2,16.1,N/A,,Partly Cloudy,320,2013-05-25 20:53:00
5:53 PM,61.0,35.1,38,30.23,10.0,Variable,6.9,19.6,N/A,,Partly Cloudy,0,2013-05-25 21:53:00
6:53 PM,61.0,34.0,36,30.23,10.0,WNW,5.8,-,N/A,,Partly Cloudy,290,2013-05-25 22:53:00
7:53 PM,59.0,35.1,41,30.23,10.0,NW,6.9,-,N/A,,Clear,310,2013-05-25 23:53:00
8:53 PM,55.0,34.0,45,30.22,10.0,WNW,3.5,-,N/A,,Clear,290,2013-05-26 00:53:00
9:53 PM,54.0,34.0,47,30.22,10.0,Calm,Calm,-,N/A,,Clear,0,2013-05-26 01:53:00
10:53 PM,48.9,37.0,64,30.24,10.0,NNE,3.5,-,N/A,,Clear,30,2013-05-26 02:53:00
11:53 PM,48.0,37.9,68,30.25,10.0,Calm,Calm,-,N/A,,Clear,0,2013-05-26 03:53:00